Time,TemperatureF,DewpointF,PressureIn,WindDirection,WindDirectionDegrees,WindSpeedMPH,WindSpeedGustMPH,Humidity,HourlyPrecipIn,Conditions,Clouds,dailyrainin,SoftwareType,DateUTC
2014-07-23 00:01:00,53.3,52.2,30.15,NW,323,0.0,0.0,96,0.00,,,0.00,WeatherCatV1.15B25,2014-07-22 14:01:00,
2014-07-23 00:06:00,53.1,52.0,30.15,NW,323,0.0,0.0,96,0.00,,,0.00,WeatherCatV1.15B25,2014-07-22 14:06:00,
2014-07-23 00:11:00,52.9,51.8,30.15,NW,323,0.0,0.0,96,0.00,,,0.00,WeatherCatV1.15B25,2014-07-22 14:11:00,
2014-07-23 00:16:00,52.8,51.7,30.14,NW,322,0.0,1.0,96,0.00,,,0.00,WeatherCatV1.15B25,2014-07-22 14:16:00,
2014-07-23 00:21:00,53.1,52.0,30.14,NW,319,0.0,1.0,96,0.00,,,0.00,WeatherCatV1.15B25,2014-07-22 14:21:00,
2014-07-23 00:26:00,53.2,52.1,30.14,NW,319,0.0,0.0,96,0.00,,,0.00,WeatherCatV1.15B25,2014-07-22 14:26:00,
2014-07-23 00:31:00,53.0,51.9,30.14,NW,319,0.0,0.0,96,0.00,,,0.00,WeatherCatV1.15B25,2014-07-22 14:31:00,
2014-07-23 00:36:00,52.9,51.8,30.14,NW,319,0.0,0.0,96,0.00,,,0.00,WeatherCatV1.15B25,2014-07-22 14:36:00,
2014-07-23 00:41:00,52.6,51.5,30.14,NW,319,0.0,0.0,96,0.00,,,0.00,WeatherCatV1.15B25,2014-07-22 14:41:00,
2014-07-23 00:46:00,52.3,51.2,30.14,NW,319,0.0,0.0,96,0.00,,,0.00,WeatherCatV1.15B25,2014-07-22 14:46:00,
2014-07-23 00:51:00,52.2,51.1,30.14,NW,319,0.0,0.0,96,0.00,,,0.00,WeatherCatV1.15B25,2014-07-22 14:51:00,
2014-07-23 00:56:00,52.0,50.9,30.14,NW,319,0.0,0.0,96,0.00,,,0.00,WeatherCatV1.15B25,2014-07-22 14:56:00,
2014-07-23 01:01:00,52.0,50.9,30.14,NW,319,0.0,0.0,96,0.00,,,0.00,WeatherCatV1.15B25,2014-07-22 15:01:00,
2014-07-23 01:06:00,52.1,51.0,30.14,NNW,341,0.0,1.0,96,0.00,,,0.00,WeatherCatV1.15B25,2014-07-22 15:06:00,
2014-07-23 01:11:00,52.2,51.1,30.14,North,355,0.0,1.0,96,0.00,,,0.00,WeatherCatV1.15B25,2014-07-22 15:11:00,
2014-07-23 01:16:00,52.2,51.1,30.14,North,352,0.0,1.0,96,0.00,,,0.00,WeatherCatV1.15B25,2014-07-22 15:16:00,
2014-07-23 01:21:00,52.1,51.0,30.14,NNW,340,0.0,0.0,96,0.00,,,0.00,WeatherCatV1.15B25,2014-07-22 15:21:00,
2014-07-23 01:26:00,52.0,50.9,30.14,NNW,340,0.0,0.0,96,0.00,,,0.00,WeatherCatV1.15B25,2014-07-22 15:26:00,
2014-07-23 01:31:00,51.9,50.8,30.14,NW,324,0.0,1.0,96,0.00,,,0.00,WeatherCatV1.15B25,2014-07-22 15:31:00,
2014-07-23 01:36:00,51.9,50.8,30.14,NW,324,0.0,1.0,96,0.00,,,0.00,WeatherCatV1.15B25,2014-07-22 15:36:00,
2014-07-23 01:41:00,51.9,50.8,30.14,NW,311,0.0,1.0,96,0.00,,,0.00,WeatherCatV1.15B25,2014-07-22 15:41:00,
2014-07-23 01:46:00,51.9,50.8,30.15,WNW,296,0.0,1.0,96,0.00,,,0.00,WeatherCatV1.15B25,2014-07-22 15:46:00,
2014-07-23 01:51:00,51.8,50.7,30.15,WNW,296,0.0,0.0,96,0.00,,,0.00,WeatherCatV1.15B25,2014-07-22 15:51:00,
2014-07-23 01:56:00,51.7,50.6,30.15,WNW,300,0.0,1.0,96,0.00,,,0.00,WeatherCatV1.15B25,2014-07-22 15:56:00,
2014-07-23 02:01:00,51.7,50.6,30.15,NW,306,0.0,2.0,96,0.00,,,0.00,WeatherCatV1.15B25,2014-07-22 16:01:00,
2014-07-23 02:06:00,51.7,50.6,30.15,NW,307,1.0,1.0,96,0.00,,,0.00,WeatherCatV1.15B25,2014-07-22 16:06:00,
2014-07-23 02:11:00,51.6,50.5,30.15,NW,324,0.0,1.0,96,0.00,,,0.00,WeatherCatV1.15B25,2014-07-22 16:11:00,
2014-07-23 02:16:00,51.5,50.4,30.14,NW,324,0.0,1.0,96,0.00,,,0.00,WeatherCatV1.15B25,2014-07-22 16:16:00,
2014-07-23 02:21:00,51.4,50.3,30.14,NW,324,0.0,0.0,96,0.00,,,0.00,WeatherCatV1.15B25,2014-07-22 16:21:00,
2014-07-23 02:26:00,51.2,50.1,30.14,NNW,333,0.0,0.0,96,0.00,,,0.00,WeatherCatV1.15B25,2014-07-22 16:26:00,
2014-07-23 02:31:00,51.1,50.0,30.14,NNW,334,0.0,1.0,96,0.00,,,0.00,WeatherCatV1.15B25,2014-07-22 16:31:00,
2014-07-23 02:36:00,51.0,49.9,30.14,NNW,333,0.0,0.0,96,0.00,,,0.00,WeatherCatV1.15B25,2014-07-22 16:36:00,
2014-07-23 02:41:00,50.9,49.8,30.14,NNW,333,0.0,0.0,96,0.00,,,0.00,WeatherCatV1.15B25,2014-07-22 16:41:00,
2014-07-23 02:46:00,50.7,49.6,30.14,NNW,334,0.0,0.0,96,0.00,,,0.00,WeatherCatV1.15B25,2014-07-22 16:46:00,
2014-07-23 02:51:00,50.8,49.7,30.14,WNW,297,0.0,0.0,96,0.00,,,0.00,WeatherCatV1.15B25,2014-07-22 16:51:00,
2014-07-23 02:56:00,50.8,49.7,30.14,NW,310,0.0,0.0,96,0.00,,,0.00,WeatherCatV1.15B25,2014-07-22 16:56:00,
2014-07-23 03:01:00,50.6,49.5,30.14,NW,314,0.0,0.0,96,0.00,,,0.00,WeatherCatV1.15B25,2014-07-22 17:01:00,
2014-07-23 03:06:00,50.6,49.5,30.14,North,352,0.0,1.0,96,0.00,,,0.00,WeatherCatV1.15B25,2014-07-22 17:06:00,
2014-07-23 03:11:00,50.6,49.5,30.14,North,355,0.0,1.0,96,0.00,,,0.00,WeatherCatV1.15B25,2014-07-22 17:11:00,
2014-07-23 03:16:00,50.5,49.4,30.14,North,354,0.0,0.0,96,0.00,,,0.00,WeatherCatV1.15B25,2014-07-22 17:16:00,
2014-07-23 03:21:00,50.4,49.3,30.13,North,354,0.0,0.0,96,0.00,,,0.00,WeatherCatV1.15B25,2014-07-22 17:21:00,
2014-07-23 03:26:00,50.3,49.2,30.13,North,354,0.0,1.0,96,0.00,,,0.00,WeatherCatV1.15B25,2014-07-22 17:26:00,
2014-07-23 03:31:00,50.4,49.3,30.13,NNW,341,0.0,1.0,96,0.00,,,0.00,WeatherCatV1.15B25,2014-07-22 17:31:00,
2014-07-23 03:36:00,50.5,49.4,30.13,NNW,341,0.0,0.0,96,0.00,,,0.00,WeatherCatV1.15B25,2014-07-22 17:36:00,
2014-07-23 03:41:00,50.6,49.5,30.13,NNW,341,0.0,1.0,96,0.00,,,0.00,WeatherCatV1.15B25,2014-07-22 17:41:00,
2014-07-23 03:46:00,50.6,49.5,30.13,NNW,336,0.0,1.0,96,0.00,,,0.00,WeatherCatV1.15B25,2014-07-22 17:46:00,
2014-07-23 03:51:00,50.5,49.4,30.13,NNW,336,0.0,0.0,96,0.00,,,0.00,WeatherCatV1.15B25,2014-07-22 17:51:00,
2014-07-23 03:56:00,50.4,49.3,30.13,NNW,336,0.0,0.0,96,0.00,,,0.01,WeatherCatV1.15B25,2014-07-22 17:56:00,
2014-07-23 04:01:00,50.3,49.2,30.13,NNW,336,0.0,0.0,96,0.00,,,0.01,WeatherCatV1.15B25,2014-07-22 18:01:00,
2014-07-23 04:06:00,50.3,49.2,30.13,NNW,336,0.0,0.0,96,0.00,,,0.01,WeatherCatV1.15B25,2014-07-22 18:06:00,
2014-07-23 04:11:00,50.4,49.3,30.13,NW,324,0.0,1.0,96,0.00,,,0.01,WeatherCatV1.15B25,2014-07-22 18:11:00,
2014-07-23 04:16:00,50.5,49.7,30.13,WNW,299,0.0,1.0,97,0.00,,,0.01,WeatherCatV1.15B25,2014-07-22 18:16:00,
2014-07-23 04:21:00,50.5,49.4,30.13,WNW,301,0.0,0.0,96,0.00,,,0.01,WeatherCatV1.15B25,2014-07-22 18:21:00,
2014-07-23 04:26:00,50.4,49.3,30.14,WNW,301,0.0,0.0,96,0.00,,,0.01,WeatherCatV1.15B25,2014-07-22 18:26:00,
2014-07-23 04:31:00,50.3,49.2,30.13,NW,304,0.0,1.0,96,0.00,,,0.01,WeatherCatV1.15B25,2014-07-22 18:31:00,
2014-07-23 04:36:00,50.3,49.2,30.14,NW,304,0.0,1.0,96,0.00,,,0.01,WeatherCatV1.15B25,2014-07-22 18:36:00,